EHI
0 0 0 0 0 0 0 0 0 0 0 1 3 4 5 5 7 9 8 7 5 6 8 10 9 7 5 4 5 7 9 8 7 7 7 7 6 6 5 4 3 4 5 6
0 0 0 0 0 0 0 0 0 0 0 1 2 2 4 6 8 9 9 8 7 8 10 11 11 8 6 5 6 8 9 9 8 7 7 8 7 5 5 4 4 4 4 5
0 0 0 0 0 0 0 0 0 0 0 1 1 1 3 6 7 9 9 9 10 11 11 12 13 12 9 7 8 9 10 10 7 6 7 8 8 7 6 6 5 4 4 4
0 0 0 0 0 0 0 0 0 0 0 0 0 1 3 4 5 7 8 10 12 12 11 12 16 17 12 9 10 11 11 9 7 6 7 8 8 8 8 7 6 5 4 4
0 0 0 0 0 0 0 0 0 0 0 0 0 1 2 2 3 5 8 11 15 15 13 14 19 20 17 15 14 14 13 11 9 9 9 8 7 7 6 7 6 5 4 4
0 0 0 0 0 0 0 0 0 0 0 0 0 0 0 1 2 3 6 11 18 20 17 17 20 22 23 23 22 19 17 17 14 12 11 10 8 6 6 7 7 5 4 4
0 0 0 0 0 0 0 0 0 0 0 0 0 0 0 0 1 1 4 10 18 21 20 18 20 23 26 29 30 27 24 23 20 16 14 13 11 9 8 8 7 6 5 4
0 0 0 0 0 0 0 0 0 0 0 0 0 0 0 0 0 0 3 9 16 21 21 20 19 22 25 28 31 31 29 27 24 19 15 13 13 11 11 11 10 9 7 4
0 0 0 0 0 0 0 0 0 0 0 0 0 0 0 0 0 1 3 8 15 20 21 21 21 22 22 23 26 29 30 29 27 23 16 12 13 13 12 12 12 11 7 4
0 0 0 0 0 0 0 0 0 0 0 0 0 0 1 2 3 4 6 10 16 21 23 23 23 22 21 21 24 28 30 30 29 25 18 13 13 13 11 11 12 11 8 5
0 0 0 0 0 0 0 0 0 0 0 0 0 0 1 3 4 7 10 14 19 23 24 24 24 23 22 23 26 29 30 29 27 24 18 15 14 13 12 12 12 11 9 7
0 0 0 0 0 0 0 0 0 0 0 0 0 0 0 1 3 6 10 17 20 22 22 21 21 23 24 27 29 29 28 26 24 22 20 17 15 12 13 14 13 11 9 8
0 0 0 0 0 0 0 0 0 0 0 0 0 1 1 2 2 4 9 15 18 17 16 16 17 21 25 28 30 29 27 25 23 22 21 19 15 12 12 13 13 12 11 9
0 0 0 0 0 0 0 0 0 0 0 0 2 4 4 4 5 6 10 15 16 13 10 11 14 18 22 26 29 28 27 26 25 23 22 20 17 14 11 10 11 14 15 14
0 0 0 0 0 0 0 0 0 0 0 1 3 5 5 6 8 9 12 16 17 13 9 9 12 15 18 23 27 29 28 27 26 25 24 22 19 16 13 11 12 15 19 20
0 0 0 0 0 0 0 0 1 1 1 2 4 4 4 6 10 12 15 18 18 14 11 11 12 15 18 22 28 32 32 29 26 25 23 22 21 19 17 15 14 16 19 22
0 0 0 0 0 0 0 0 1 2 2 3 4 4 4 7 11 13 16 19 19 18 17 16 16 18 20 23 28 33 34 31 27 25 23 22 23 22 20 17 16 17 19 21
0 0 0 0 0 0 0 0 1 2 2 3 4 5 5 8 11 13 15 17 19 20 19 17 16 17 19 22 26 29 30 29 27 25 23 23 24 23 21 18 17 18 19 21
0 0 0 0 0 0 0 1 2 2 2 2 4 5 6 9 11 11 10 12 14 15 15 14 13 13 14 16 21 25 26 27 28 26 24 24 25 24 22 20 18 18 18 19
0 0 0 0 0 0 0 1 2 2 1 1 2 3 5 8 9 7 6 7 8 8 9 10 12 12 11 12 16 21 25 27 28 27 26 24 23 22 21 20 18 17 16 15
0 0 0 0 0 0 0 0 1 1 0 0 1 2 3 4 4 4 5 6 5 4 5 8 11 13 13 14 16 18 22 25 26 26 24 22 21 19 18 18 17 16 15 14
0 0 0 0 0 0 0 0 0 0 0 0 0 2 3 2 3 4 5 6 5 4 4 6 8 11 15 16 15 15 16 19 21 21 20 20 21 19 18 18 19 19 17 16
0 0 1 1 1 1 1 0 0 0 0 0 0 2 3 3 3 3 4 5 5 5 5 5 6 7 10 12 12 10 9 11 14 15 17 19 20 19 19 19 21 21 21 20
0 1 2 2 2 3 3 2 2 2 1 1 1 2 4 4 3 3 3 3 3 5 6 5 5 5 6 7 8 8 7 7 9 12 16 18 18 18 18 19 19 20 20 20
0 1 3 3 3 4 5 5 5 5 4 4 3 4 6 6 4 3 3 3 3 5 8 8 7 6 5 5 7 8 8 7 8 12 16 17 17 17 16 15 14 14 14 15
1 2 3 3 3 4 6 6 6 6 6 6 5 7 8 7 5 4 3 3 5 7 10 10 9 8 6 6 7 8 9 8 9 12 15 16 17 16 14 11 9 9 9 9
Wind_Speed
3 3 3 7 7 6 5 4 3 3 4 4 5 6 11 10 9 9 9 9 9 9 8 8 8 9 8 6 6 5 5 4 3 2 2 2 1 1 1 1 3 3 3 3
4 4 9 7 5 4 3 4 2 1 3 4 4 4 8 10 12 12 12 11 10 8 7 8 8 8 8 8 7 6 5 4 4 3 2 2 2 1 1 1 1 2 2 3
6 9 7 5 4 4 3 6 6 4 2 2 5 1 3 5 6 7 9 10 11 13 11 10 10 9 9 8 8 7 6 5 4 3 2 2 2 2 1 1 0 1 2 2
6 8 5 5 6 5 4 7 8 6 4 1 3 3 5 5 5 8 9 9 10 11 10 10 11 10 10 9 8 7 6 5 4 4 3 4 3 2 2 1 1 1 1 1
6 5 4 6 7 5 5 4 5 5 4 1 0 3 5 3 6 8 10 11 11 12 13 12 12 12 10 9 8 7 6 5 4 4 4 4 3 2 1 1 1 0 0 1
8 6 5 7 6 4 3 4 5 5 5 1 3 4 4 6 10 9 10 12 12 12 12 12 11 10 9 9 8 7 7 5 5 4 4 4 4 3 2 1 1 1 1 1
6 7 5 3 1 1 5 7 4 5 4 4 3 2 8 8 8 10 11 12 11 11 11 11 11 11 10 10 9 8 8 6 6 5 4 4 4 4 3 3 2 2 1 1
2 7 6 3 4 4 3 9 8 4 4 4 2 4 7 5 5 7 9 10 11 10 10 12 12 12 11 11 10 9 9 7 6 6 5 4 4 3 2 3 2 3 2 2
4 7 7 4 2 5 2 3 7 7 2 1 3 3 6 2 1 5 7 9 10 11 11 12 12 11 11 10 10 10 9 7 6 6 5 4 4 3 3 2 2 2 2 2
5 3 6 5 3 2 5 5 6 5 4 1 2 2 3 2 2 4 6 8 9 11 11 12 12 12 10 10 9 9 9 9 7 6 6 5 4 4 3 3 3 2 2 2
4 3 5 3 1 2 2 3 5 4 5 6 2 5 5 6 5 6 6 6 9 10 11 11 11 11 10 9 9 8 8 7 6 6 5 5 4 4 4 3 3 3 3 3
3 5 2 6 5 4 3 4 5 4 3 4 4 6 4 5 5 6 6 5 7 8 9 10 11 10 10 10 9 9 8 8 7 6 5 5 4 4 4 4 4 4 4 4
3 6 2 6 8 6 2 1 2 5 4 3 4 5 4 0 2 3 5 5 5 5 7 8 8 9 10 10 9 9 9 8 7 6 6 5 4 4 4 5 5 4 4 3
5 5 6 7 6 3 3 4 1 5 3 2 4 4 4 1 2 3 3 4 5 4 5 7 7 7 7 8 8 8 7 7 6 6 5 5 5 5 5 4 4 4 4 4
6 3 2 3 3 0 2 3 2 1 4 5 5 6 7 5 4 4 4 5 5 5 5 6 6 6 6 6 6 6 6 5 5 5 5 6 5 4 4 4 4 4 4 4
4 3 1 1 2 2 3 2 1 1 2 3 3 3 3 3 4 5 5 6 5 4 5 5 5 5 5 6 6 6 5 5 5 5 5 4 4 4 3 3 3 3 4 4
2 4 3 2 3 3 3 2 1 1 1 3 2 3 2 4 5 6 6 7 5 4 4 4 4 4 4 5 5 6 6 5 5 6 5 5 4 4 4 3 3 3 4 4
4 3 3 1 2 3 7 3 2 4 4 4 3 2 4 4 4 4 5 6 5 5 4 3 3 3 3 3 3 4 4 5 5 5 5 5 4 4 4 3 3 4 3 3
6 7 3 3 2 3 4 2 2 2 1 2 4 3 3 5 7 5 3 4 4 4 4 3 2 2 2 2 2 4 4 4 4 4 5 5 5 4 4 4 4 3 2 3
5 6 6 3 3 4 5 4 2 4 1 2 3 4 4 5 4 2 0 3 4 4 3 3 3 3 3 1 2 4 3 3 4 4 5 5 5 5 5 5 4 3 2 3
4 3 4 3 3 5 5 5 3 3 5 4 3 5 4 4 4 4 3 3 4 4 3 4 4 4 2 1 3 3 2 2 3 3 3 3 4 4 4 4 3 2 2 2
3 2 2 3 2 6 5 3 3 4 3 0 2 3 4 4 5 5 4 4 4 3 3 3 3 2 1 2 2 1 1 3 1 1 2 3 4 4 3 3 3 3 3 3
3 5 5 5 6 5 1 2 3 4 4 2 3 3 5 6 5 4 3 3 2 2 2 2 3 2 2 1 1 1 3 2 0 0 2 3 4 4 4 4 4 3 3 3
2 1 3 1 1 1 2 3 3 4 4 3 4 4 5 5 4 4 3 2 2 1 1 1 2 1 1 1 1 1 2 1 1 1 2 2 3 3 3 3 3 3 3 3
3 1 2 1 1 3 4 3 3 5 5 5 5 4 4 5 4 3 3 2 1 1 0 1 1 1 1 1 1 1 1 1 1 2 2 2 2 3 3 3 2 3 4 5
2 2 4 5 5 3 3 1 2 4 3 3 4 4 3 3 3 3 2 1 1 0 0 1 0 0 1 1 1 2 1 1 1 2 2 2 2 2 2 2 2 3 3 4
Wind_Direction
320 63 241 228 207 205 188 168 190 221 178 134 160 165 175 173 170 170 167 167 169 172 170 161 158 153 147 142 137 140 138 144 132 120 122 117 121 123 125 145 157 162 159 157
357 275 241 228 222 204 168 151 176 237 158 153 168 177 182 179 181 180 174 172 173 171 168 167 162 158 157 156 152 148 151 154 149 155 155 151 146 153 154 143 129 156 165 174
216 246 249 231 225 216 224 180 187 179 160 96 107 73 186 201 181 184 184 180 175 174 174 174 167 165 162 163 165 162 164 162 162 150 125 103 77 50 45 44 211 220 192 183
245 251 253 245 231 197 231 207 180 170 126 198 142 177 238 204 194 193 193 185 182 179 177 177 172 169 171 173 168 163 166 163 164 149 135 140 142 158 203 201 205 246 214 168
256 253 246 243 231 195 219 199 162 162 136 95 40 134 265 185 205 209 196 192 185 183 183 182 176 174 174 172 170 169 164 162 162 156 156 148 150 170 177 155 150 214 269 172
252 257 227 230 235 196 159 69 54 56 75 45 240 149 250 211 208 196 192 195 186 182 182 182 177 170 172 172 171 167 163 168 168 161 158 159 161 163 154 170 175 222 244 249
293 291 279 244 264 328 95 86 41 7 19 254 250 154 239 225 207 189 186 188 185 182 179 176 175 172 173 174 173 170 166 173 174 168 170 172 172 171 177 188 189 198 204 214
237 281 275 252 189 191 170 133 151 183 211 273 311 225 255 241 211 187 180 175 172 176 179 175 175 172 171 173 174 174 174 179 178 177 183 180 176 176 186 194 191 200 205 213
189 258 285 277 223 151 155 177 166 140 154 135 280 296 317 21 142 166 163 161 173 177 177 171 169 168 169 171 176 176 175 177 181 185 183 180 181 179 185 190 186 195 205 210
165 244 290 299 21 22 157 157 95 111 139 193 279 267 247 260 203 155 166 179 179 178 179 173 172 172 172 173 173 172 174 180 181 182 188 189 191 193 192 185 196 197 207 209
146 158 301 352 75 266 19 63 102 123 153 153 199 262 233 196 182 172 184 182 174 176 178 177 175 175 172 168 168 169 170 172 177 186 191 193 193 195 193 197 207 201 197 191
153 127 257 269 260 224 167 167 138 144 223 158 155 258 272 182 181 178 180 171 167 169 169 168 169 170 170 172 174 178 176 177 185 187 186 192 196 191 194 203 210 202 196 198
124 111 69 333 339 356 34 12 133 133 123 144 150 254 312 321 113 150 160 151 145 150 157 161 163 169 175 177 179 182 182 184 186 183 184 187 192 193 201 206 210 205 199 204
107 110 154 191 223 258 311 318 344 103 123 180 194 212 291 271 116 117 123 131 133 137 153 159 162 168 173 177 179 182 184 186 184 181 182 189 199 201 202 205 207 208 202 204
93 118 179 211 224 109 306 299 338 99 171 173 201 198 227 205 170 159 141 120 116 120 130 150 159 164 167 167 170 173 177 180 179 177 185 197 199 197 201 207 209 211 211 216
71 116 100 328 326 26 358 336 47 64 118 136 141 235 253 157 120 105 113 117 123 140 136 141 141 145 162 170 173 174 178 178 164 171 186 195 192 189 203 215 212 208 218 222
67 103 98 263 304 26 325 287 99 84 81 145 168 226 163 111 118 133 137 122 122 115 115 130 141 151 165 175 172 177 183 174 167 177 188 188 194 196 203 211 209 222 228 224
135 104 124 149 61 215 240 268 83 87 55 77 100 124 137 131 126 121 120 122 118 96 97 116 131 139 144 146 156 168 165 167 173 181 190 196 197 204 206 211 221 231 229 227
144 133 116 120 158 249 290 330 42 107 350 50 107 108 100 103 68 41 44 94 111 110 111 112 113 117 114 121 137 134 149 165 175 189 198 202 199 202 205 214 227 230 227 244
75 104 114 121 148 219 248 280 279 100 278 304 118 130 120 94 96 262 310 107 102 94 89 88 75 72 71 59 112 114 139 158 193 211 211 204 198 199 206 216 223 225 218 227
36 54 111 147 187 250 261 295 26 114 230 262 170 159 142 138 172 178 133 100 95 92 92 87 80 71 62 48 87 109 122 202 228 224 219 210 200 205 210 212 215 221 228 229
145 128 153 137 167 247 292 27 113 206 226 209 126 135 117 114 113 115 109 100 88 78 76 92 91 76 58 60 79 103 227 248 262 232 225 223 214 218 221 210 219 217 215 230
152 177 175 176 205 240 280 137 165 142 109 93 112 115 112 113 114 110 103 101 92 90 78 85 90 63 21 26 65 336 279 282 325 317 250 239 229 223 215 209 218 224 220 229
316 72 102 77 289 312 42 64 68 88 99 90 97 105 98 102 111 106 99 87 79 95 110 101 94 91 306 297 271 253 289 312 324 281 272 251 236 240 233 220 215 217 223 229
273 21 75 101 273 23 24 46 68 68 64 61 60 78 96 104 108 113 113 102 103 70 90 131 141 199 273 299 310 305 321 350 312 292 288 275 245 232 237 234 230 228 229 224
261 177 165 214 224 183 230 238 95 89 73 68 64 49 61 100 113 113 115 126 140 132 26 40 2 325 296 309 315 310 328 343 307 298 287 279 269 253 235 235 290 302 274 266